Time,TemperatureF,DewpointF,PressureIn,WindDirection,WindDirectionDegrees,WindSpeedMPH,WindSpeedGustMPH,Humidity,HourlyPrecipIn,Conditions,Clouds,dailyrainin,SoftwareType,DateUTC
2013-01-23 00:00:00,58.0,45.1,30.24,NNW,331,9.0,13.0,62,0.00,,SKC,0.00,VWS V14.01,2013-01-23 05:00:00,
2013-01-23 00:02:00,58.0,45.1,30.24,NE,34,6.0,10.0,62,0.00,,SKC,0.00,VWS V14.01,2013-01-23 05:02:00,
2013-01-23 00:03:00,58.0,45.1,30.24,NE,55,6.0,10.0,62,0.00,,SKC,0.00,VWS V14.01,2013-01-23 05:03:00,
2013-01-23 00:08:00,58.0,45.5,30.24,NNW,345,6.0,10.0,63,0.00,,SKC,0.00,VWS V14.01,2013-01-23 05:08:00,
2013-01-23 00:13:00,57.9,45.4,30.24,NNE,31,8.0,11.0,63,0.00,,SKC,0.00,VWS V14.01,2013-01-23 05:13:00,
2013-01-23 00:18:00,57.8,45.3,30.24,NNW,327,6.0,11.0,63,0.00,,SKC,0.00,VWS V14.01,2013-01-23 05:18:00,
2013-01-23 00:23:00,57.7,45.2,30.23,ENE,59,11.0,12.0,63,0.00,,SKC,0.00,VWS V14.01,2013-01-23 05:23:00,
2013-01-23 00:28:00,57.6,45.1,30.24,NNW,336,7.0,12.0,63,0.00,,SKC,0.00,VWS V14.01,2013-01-23 05:28:00,
2013-01-23 00:33:00,57.6,45.1,30.23,NNE,32,3.0,9.0,63,0.00,,SKC,0.00,VWS V14.01,2013-01-23 05:33:00,
2013-01-23 00:38:00,57.5,45.0,30.23,NE,41,5.0,10.0,63,0.00,,SKC,0.00,VWS V14.01,2013-01-23 05:38:00,
2013-01-23 00:43:00,57.5,45.0,30.22,NE,46,8.0,12.0,63,0.00,,SKC,0.00,VWS V14.01,2013-01-23 05:43:00,
2013-01-23 00:48:00,57.4,45.3,30.22,West,263,4.0,12.0,64,0.00,,SKC,0.00,VWS V14.01,2013-01-23 05:48:00,
2013-01-23 00:53:00,57.4,45.3,30.23,WNW,298,9.0,12.0,64,0.00,,SKC,0.00,VWS V14.01,2013-01-23 05:53:00,
2013-01-23 00:58:00,57.5,45.4,30.23,ENE,61,8.0,12.0,64,0.00,,SKC,0.00,VWS V14.01,2013-01-23 05:58:00,
2013-01-23 01:03:00,57.5,45.4,30.23,NNE,23,6.0,8.0,64,0.00,,SKC,0.00,VWS V14.01,2013-01-23 06:03:00,
2013-01-23 01:08:00,57.5,45.8,30.23,NW,324,1.0,8.0,65,0.00,,SKC,0.00,VWS V14.01,2013-01-23 06:08:00,
2013-01-23 01:13:00,57.6,45.9,30.23,NE,44,5.0,11.0,65,0.00,,SKC,0.00,VWS V14.01,2013-01-23 06:13:00,
2013-01-23 01:18:00,57.5,45.8,30.23,NNW,344,6.0,11.0,65,0.00,,SKC,0.00,VWS V14.01,2013-01-23 06:18:00,
2013-01-23 01:23:00,57.5,45.8,30.23,North,360,5.0,11.0,65,0.00,,SKC,0.00,VWS V14.01,2013-01-23 06:23:00,
2013-01-23 01:28:00,57.5,46.2,30.23,North,350,4.0,11.0,66,0.00,,SKC,0.00,VWS V14.01,2013-01-23 06:28:00,
2013-01-23 01:33:00,57.5,46.2,30.23,NNW,346,4.0,9.0,66,0.00,,SKC,0.00,VWS V14.01,2013-01-23 06:33:00,
2013-01-23 01:38:00,57.4,46.2,30.23,NNE,17,6.0,10.0,66,0.00,,SKC,0.00,VWS V14.01,2013-01-23 06:38:00,
2013-01-23 01:43:00,57.3,46.0,30.23,NNE,20,8.0,14.0,66,0.00,,SKC,0.00,VWS V14.01,2013-01-23 06:43:00,
2013-01-23 01:48:00,57.2,46.0,30.23,NE,40,6.0,14.0,66,0.00,,SKC,0.00,VWS V14.01,2013-01-23 06:48:00,
2013-01-23 01:53:00,57.1,45.9,30.22,NNE,12,3.0,14.0,66,0.00,,SKC,0.00,VWS V14.01,2013-01-23 06:53:00,
2013-01-23 01:58:00,57.0,46.2,30.22,NNW,347,5.0,14.0,67,0.00,,SKC,0.00,VWS V14.01,2013-01-23 06:58:00,
2013-01-23 02:03:00,56.9,46.1,30.22,NE,43,6.0,8.0,67,0.00,,SKC,0.00,VWS V14.01,2013-01-23 07:03:00,
2013-01-23 02:08:00,56.9,46.1,30.22,NNE,12,6.0,8.0,67,0.00,,SKC,0.00,VWS V14.01,2013-01-23 07:08:00,
2013-01-23 02:13:00,56.9,46.1,30.22,NE,45,2.0,9.0,67,0.00,,SKC,0.00,VWS V14.01,2013-01-23 07:13:00,
2013-01-23 02:18:00,56.8,46.0,30.23,North,11,4.0,9.0,67,0.00,,SKC,0.00,VWS V14.01,2013-01-23 07:18:00,
2013-01-23 02:23:00,56.8,46.4,30.23,NNE,27,5.0,9.0,68,0.00,,SKC,0.00,VWS V14.01,2013-01-23 07:23:00,
2013-01-23 02:28:00,56.7,46.3,30.23,NNE,30,5.0,9.0,68,0.00,,SKC,0.00,VWS V14.01,2013-01-23 07:28:00,
2013-01-23 02:33:00,56.6,46.2,30.23,NNW,336,4.0,9.0,68,0.00,,SKC,0.00,VWS V14.01,2013-01-23 07:33:00,
2013-01-23 02:38:00,56.5,46.1,30.23,NW,320,8.0,9.0,68,0.00,,SKC,0.00,VWS V14.01,2013-01-23 07:38:00,
2013-01-23 02:43:00,56.5,46.5,30.23,NNE,28,6.0,10.0,69,0.00,,SKC,0.00,VWS V14.01,2013-01-23 07:43:00,
2013-01-23 02:48:00,56.4,46.4,30.23,NE,38,6.0,12.0,69,0.00,,SKC,0.00,VWS V14.01,2013-01-23 07:48:00,
2013-01-23 02:53:00,56.3,45.9,30.22,NE,40,6.0,12.0,68,0.00,,SKC,0.00,VWS V14.01,2013-01-23 07:53:00,
2013-01-23 02:58:00,56.3,46.3,30.22,NE,37,4.0,12.0,69,0.00,,SKC,0.00,VWS V14.01,2013-01-23 07:58:00,
2013-01-23 03:03:00,56.2,46.2,30.22,NNW,336,5.0,7.0,69,0.00,,SKC,0.00,VWS V14.01,2013-01-23 08:03:00,
2013-01-23 03:08:00,56.2,46.2,30.23,NNE,16,6.0,9.0,69,0.00,,SKC,0.00,VWS V14.01,2013-01-23 08:08:00,
2013-01-23 03:13:00,56.2,46.2,30.23,NNE,28,7.0,10.0,69,0.00,,SKC,0.00,VWS V14.01,2013-01-23 08:13:00,
2013-01-23 03:18:00,56.2,46.2,30.22,NNE,28,8.0,10.0,69,0.00,,SKC,0.00,VWS V14.01,2013-01-23 08:18:00,
2013-01-23 03:23:00,56.0,46.0,30.22,NE,48,9.0,11.0,69,0.00,,SKC,0.00,VWS V14.01,2013-01-23 08:23:00,
2013-01-23 03:28:00,56.0,46.0,30.22,NNE,19,9.0,14.0,69,0.00,,SKC,0.00,VWS V14.01,2013-01-23 08:28:00,
2013-01-23 03:33:00,55.9,45.9,30.23,NNE,32,5.0,10.0,69,0.00,,SKC,0.00,VWS V14.01,2013-01-23 08:33:00,
2013-01-23 03:38:00,55.8,45.8,30.23,NE,35,5.0,10.0,69,0.00,,SKC,0.00,VWS V14.01,2013-01-23 08:38:00,
2013-01-23 03:43:00,55.8,46.2,30.23,NNE,24,3.0,10.0,70,0.00,,SKC,0.00,VWS V14.01,2013-01-23 08:43:00,
2013-01-23 03:48:00,55.7,46.1,30.23,NNE,30,5.0,10.0,70,0.00,,SKC,0.00,VWS V14.01,2013-01-23 08:48:00,
2013-01-23 03:53:00,55.7,45.7,30.23,NNE,31,6.0,13.0,69,0.00,,SKC,0.00,VWS V14.01,2013-01-23 08:53:00,
2013-01-23 03:58:00,55.7,45.7,30.23,NNE,24,4.0,13.0,69,0.00,,SKC,0.00,VWS V14.01,2013-01-23 08:58:00,
2013-01-23 04:03:00,55.6,45.6,30.22,NNE,29,5.0,8.0,69,0.00,,SKC,0.00,VWS V14.01,2013-01-23 09:03:00,
2013-01-23 04:08:00,55.5,45.9,30.22,NNE,33,2.0,8.0,70,0.00,,SKC,0.00,VWS V14.01,2013-01-23 09:08:00,
2013-01-23 04:13:00,55.7,45.7,30.23,NW,324,3.0,11.0,69,0.00,,SKC,0.00,VWS V14.01,2013-01-23 09:13:00,
2013-01-23 04:18:00,55.7,45.7,30.23,NE,55,6.0,11.0,69,0.00,,SKC,0.00,VWS V14.01,2013-01-23 09:18:00,
2013-01-23 04:23:00,55.7,46.1,30.22,NW,306,2.0,11.0,70,0.00,,SKC,0.00,VWS V14.01,2013-01-23 09:23:00,
2013-01-23 04:28:00,55.8,45.8,30.22,NNE,24,5.0,11.0,69,0.00,,SKC,0.00,VWS V14.01,2013-01-23 09:28:00,
2013-01-23 04:33:00,55.9,45.9,30.23,NE,40,3.0,10.0,69,0.00,,SKC,0.00,VWS V14.01,2013-01-23 09:33:00,
2013-01-23 04:38:00,55.9,45.5,30.23,NE,44,5.0,10.0,68,0.00,,SKC,0.00,VWS V14.01,2013-01-23 09:38:00,
2013-01-23 04:43:00,56.0,45.6,30.23,NE,46,4.0,11.0,68,0.00,,SKC,0.00,VWS V14.01,2013-01-23 09:43:00,
2013-01-23 04:48:00,56.1,45.7,30.23,NE,45,6.0,11.0,68,0.00,,SKC,0.00,VWS V14.01,2013-01-23 09:48:00,
2013-01-23 04:53:00,56.0,45.2,30.23,NNE,24,3.0,11.0,67,0.00,,SKC,0.00,VWS V14.01,2013-01-23 09:53:00,
2013-01-23 04:58:00,56.0,45.6,30.23,NNE,24,4.0,11.0,68,0.00,,SKC,0.00,VWS V14.01,2013-01-23 09:58:00,
2013-01-23 05:03:00,55.9,45.5,30.23,NNE,18,6.0,8.0,68,0.00,,SKC,0.00,VWS V14.01,2013-01-23 10:03:00,
2013-01-23 05:08:00,55.9,45.1,30.23,NNE,24,6.0,10.0,67,0.00,,SKC,0.00,VWS V14.01,2013-01-23 10:08:00,
2013-01-23 05:13:00,55.8,44.6,30.24,NNE,21,14.0,14.0,66,0.00,,SKC,0.00,VWS V14.01,2013-01-23 10:13:00,
2013-01-23 05:18:00,55.7,44.5,30.24,NNW,327,4.0,14.0,66,0.00,,SKC,0.00,VWS V14.01,2013-01-23 10:18:00,
2013-01-23 05:23:00,55.3,43.8,30.24,NNE,29,10.0,14.0,65,0.00,,SKC,0.00,VWS V14.01,2013-01-23 10:23:00,
2013-01-23 05:28:00,55.1,43.2,30.24,NNE,22,4.0,14.0,64,0.00,,SKC,0.00,VWS V14.01,2013-01-23 10:28:00,
2013-01-23 05:33:00,54.9,43.0,30.24,NNE,17,6.0,12.0,64,0.00,,SKC,0.00,VWS V14.01,2013-01-23 10:33:00,
2013-01-23 05:38:00,54.7,42.8,30.24,NNE,26,11.0,12.0,64,0.00,,SKC,0.00,VWS V14.01,2013-01-23 10:38:00,
2013-01-23 05:43:00,54.5,42.2,30.24,NNE,22,7.0,13.0,63,0.00,,SKC,0.00,VWS V14.01,2013-01-23 10:43:00,
2013-01-23 05:48:00,54.4,42.5,30.24,NNE,18,6.0,13.0,64,0.00,,SKC,0.00,VWS V14.01,2013-01-23 10:48:00,
2013-01-23 05:53:00,54.2,42.3,30.25,NNW,338,7.0,13.0,64,0.00,,SKC,0.00,VWS V14.01,2013-01-23 10:53:00,
2013-01-23 05:58:00,54.2,41.9,30.25,NNW,338,6.0,13.0,63,0.00,,SKC,0.00,VWS V14.01,2013-01-23 10:58:00,
2013-01-23 06:03:00,54.1,41.8,30.25,NNW,341,7.0,11.0,63,0.00,,SKC,0.00,VWS V14.01,2013-01-23 11:03:00,
2013-01-23 06:08:00,54.0,41.7,30.25,North,350,8.0,11.0,63,0.00,,SKC,0.00,VWS V14.01,2013-01-23 11:08:00,
2013-01-23 06:13:00,53.9,41.2,30.26,West,272,5.0,11.0,62,0.00,,SKC,0.00,VWS V14.01,2013-01-23 11:13:00,
2013-01-23 06:18:00,53.9,41.2,30.26,NNW,344,6.0,12.0,62,0.00,,SKC,0.00,VWS V14.01,2013-01-23 11:18:00,
2013-01-23 06:23:00,53.9,41.2,30.26,NE,51,5.0,12.0,62,0.00,,SKC,0.00,VWS V14.01,2013-01-23 11:23:00,
2013-01-23 06:28:00,53.8,41.1,30.26,NE,44,8.0,12.0,62,0.00,,SKC,0.00,VWS V14.01,2013-01-23 11:28:00,
2013-01-23 06:34:00,53.8,40.7,30.26,NE,36,7.0,14.0,61,0.00,,SKC,0.00,VWS V14.01,2013-01-23 11:34:00,
2013-01-23 06:39:00,53.8,40.7,30.26,NE,36,6.0,14.0,61,0.00,,SKC,0.00,VWS V14.01,2013-01-23 11:39:00,
2013-01-23 06:44:00,53.7,40.6,30.26,ENE,78,4.0,14.0,61,0.00,,SKC,0.00,VWS V14.01,2013-01-23 11:44:00,
2013-01-23 06:49:00,53.7,40.6,30.27,NNE,12,10.0,14.0,61,0.00,,SKC,0.00,VWS V14.01,2013-01-23 11:49:00,
2013-01-23 06:54:00,53.7,40.6,30.27,ENE,59,8.0,14.0,61,0.00,,SKC,0.00,VWS V14.01,2013-01-23 11:54:00,
2013-01-23 06:59:00,53.6,40.5,30.27,NNW,338,5.0,14.0,61,0.00,,SKC,0.00,VWS V14.01,2013-01-23 11:59:00,
2013-01-23 07:04:00,53.6,40.5,30.27,NNW,339,6.0,12.0,61,0.00,,SKC,0.00,VWS V14.01,2013-01-23 12:04:00,
2013-01-23 07:09:00,53.5,40.4,30.28,NNW,338,6.0,12.0,61,0.00,,SKC,0.00,VWS V14.01,2013-01-23 12:09:00,
2013-01-23 07:14:00,53.4,40.3,30.28,NNE,22,5.0,14.0,61,0.00,,SKC,0.00,VWS V14.01,2013-01-23 12:14:00,
2013-01-23 07:19:00,53.4,40.3,30.28,NNE,16,5.0,14.0,61,0.00,,SKC,0.00,VWS V14.01,2013-01-23 12:19:00,
2013-01-23 07:24:00,53.4,39.9,30.28,SW,225,7.0,14.0,60,0.00,,SKC,0.00,VWS V14.01,2013-01-23 12:24:00,
2013-01-23 07:29:00,53.3,39.8,30.28,NNE,28,5.0,14.0,60,0.00,,SKC,0.00,VWS V14.01,2013-01-23 12:29:00,
2013-01-23 07:34:00,53.3,39.8,30.28,NE,42,6.0,15.0,60,0.00,,SKC,0.00,VWS V14.01,2013-01-23 12:34:00,
2013-01-23 07:39:00,53.4,39.9,30.28,NNE,20,6.0,15.0,60,0.00,,SKC,0.00,VWS V14.01,2013-01-23 12:39:00,
2013-01-23 07:44:00,53.4,39.9,30.29,NNE,16,8.0,15.0,60,0.00,,SKC,0.00,VWS V14.01,2013-01-23 12:44:00,
2013-01-23 07:49:00,53.4,40.3,30.29,NNE,21,9.0,15.0,61,0.00,,SKC,0.00,VWS V14.01,2013-01-23 12:49:00,
2013-01-23 07:54:00,53.5,40.0,30.28,NNE,28,5.0,15.0,60,0.00,,SKC,0.00,VWS V14.01,2013-01-23 12:54:00,
2013-01-23 07:59:00,53.6,40.1,30.29,NNE,18,8.0,15.0,60,0.00,,SKC,0.00,VWS V14.01,2013-01-23 12:59:00,
2013-01-23 08:04:00,53.7,40.6,30.29,North,11,9.0,11.0,61,0.00,,SKC,0.00,VWS V14.01,2013-01-23 13:04:00,
2013-01-23 08:09:00,54.0,40.9,30.29,NNE,13,3.0,11.0,61,0.00,,SKC,0.00,VWS V14.01,2013-01-23 13:09:00,
2013-01-23 08:14:00,54.3,40.7,30.29,NE,40,5.0,11.0,60,0.00,,SKC,0.00,VWS V14.01,2013-01-23 13:14:00,
2013-01-23 08:19:00,54.6,41.0,30.29,NNW,348,6.0,12.0,60,0.00,,SKC,0.00,VWS V14.01,2013-01-23 13:19:00,
2013-01-23 08:24:00,54.7,41.1,30.30,NNE,16,13.0,13.0,60,0.00,,SKC,0.00,VWS V14.01,2013-01-23 13:24:00,
2013-01-23 08:29:00,54.8,41.2,30.30,NE,44,4.0,13.0,60,0.00,,SKC,0.00,VWS V14.01,2013-01-23 13:29:00,
2013-01-23 08:34:00,54.9,40.4,30.30,NNW,345,14.0,14.0,58,0.00,,SKC,0.00,VWS V14.01,2013-01-23 13:34:00,
2013-01-23 08:39:00,55.1,41.0,30.30,NNW,336,11.0,16.0,59,0.00,,SKC,0.00,VWS V14.01,2013-01-23 13:39:00,
2013-01-23 08:44:00,55.3,41.2,30.30,NNW,341,2.0,16.0,59,0.00,,SKC,0.00,VWS V14.01,2013-01-23 13:44:00,
2013-01-23 08:49:00,55.3,41.2,30.31,NNE,21,4.0,16.0,59,0.00,,SKC,0.00,VWS V14.01,2013-01-23 13:49:00,
2013-01-23 08:54:00,55.5,41.9,30.30,NW,325,4.0,16.0,60,0.00,,SKC,0.00,VWS V14.01,2013-01-23 13:54:00,
2013-01-23 08:59:00,56.1,42.0,30.31,NNE,24,5.0,16.0,59,0.00,,SKC,0.00,VWS V14.01,2013-01-23 13:59:00,
2013-01-23 09:04:00,56.7,42.5,30.31,NNE,13,11.0,11.0,59,0.00,,SKC,0.00,VWS V14.01,2013-01-23 14:04:00,
2013-01-23 09:09:00,56.6,42.0,30.31,NW,326,4.0,15.0,58,0.00,,SKC,0.00,VWS V14.01,2013-01-23 14:09:00,
2013-01-23 09:14:00,56.5,41.9,30.31,NNW,331,8.0,15.0,58,0.00,,SKC,0.00,VWS V14.01,2013-01-23 14:14:00,
2013-01-23 09:19:00,56.5,41.9,30.32,NE,45,4.0,16.0,58,0.00,,SKC,0.00,VWS V14.01,2013-01-23 14:19:00,
2013-01-23 09:24:00,57.0,42.8,30.32,NNE,19,4.0,16.0,59,0.00,,SKC,0.00,VWS V14.01,2013-01-23 14:24:00,
2013-01-23 09:29:00,57.5,42.8,30.32,North,5,9.0,16.0,58,0.00,,SKC,0.00,VWS V14.01,2013-01-23 14:29:00,
2013-01-23 09:34:00,57.7,42.6,30.32,NNE,13,8.0,10.0,57,0.00,,SKC,0.00,VWS V14.01,2013-01-23 14:34:00,
2013-01-23 09:39:00,57.8,42.7,30.32,NNW,340,11.0,13.0,57,0.00,,SKC,0.00,VWS V14.01,2013-01-23 14:39:00,
2013-01-23 09:44:00,57.8,43.1,30.32,NNE,16,5.0,13.0,58,0.00,,SKC,0.00,VWS V14.01,2013-01-23 14:44:00,
2013-01-23 09:49:00,58.1,43.0,30.32,NE,41,8.0,13.0,57,0.00,,SKC,0.00,VWS V14.01,2013-01-23 14:49:00,
2013-01-23 09:54:00,58.4,42.8,30.32,NE,36,9.0,15.0,56,0.00,,SKC,0.00,VWS V14.01,2013-01-23 14:54:00,
2013-01-23 09:59:00,58.5,42.9,30.32,NNE,22,6.0,15.0,56,0.00,,SKC,0.00,VWS V14.01,2013-01-23 14:59:00,
2013-01-23 10:04:00,58.3,42.2,30.32,North,10,8.0,13.0,55,0.00,,SKC,0.00,VWS V14.01,2013-01-23 15:04:00,
2013-01-23 10:09:00,58.1,42.5,30.32,NNE,24,7.0,14.0,56,0.00,,SKC,0.00,VWS V14.01,2013-01-23 15:09:00,
2013-01-23 10:14:00,58.0,42.9,30.32,NNE,14,10.0,14.0,57,0.00,,SKC,0.00,VWS V14.01,2013-01-23 15:14:00,
2013-01-23 10:19:00,58.2,43.1,30.32,NNW,328,5.0,14.0,57,0.00,,SKC,0.00,VWS V14.01,2013-01-23 15:19:00,
2013-01-23 10:24:00,58.5,43.8,30.32,NE,54,6.0,14.0,58,0.00,,SKC,0.00,VWS V14.01,2013-01-23 15:24:00,
2013-01-23 10:29:00,59.0,43.3,30.32,NE,35,13.0,16.0,56,0.00,,SKC,0.00,VWS V14.01,2013-01-23 15:29:00,
2013-01-23 10:34:00,59.3,43.6,30.32,NNW,345,11.0,14.0,56,0.00,,SKC,0.00,VWS V14.01,2013-01-23 15:34:00,
2013-01-23 10:39:00,59.7,44.5,30.32,NNE,15,10.0,16.0,57,0.00,,SKC,0.00,VWS V14.01,2013-01-23 15:39:00,
2013-01-23 10:44:00,59.8,44.1,30.32,NNE,32,11.0,16.0,56,0.00,,SKC,0.00,VWS V14.01,2013-01-23 15:44:00,
2013-01-23 10:49:00,60.4,44.7,30.32,NNE,21,6.0,16.0,56,0.00,,SKC,0.00,VWS V14.01,2013-01-23 15:49:00,
2013-01-23 10:54:00,61.1,45.3,30.32,NE,34,8.0,16.0,56,0.00,,SKC,0.00,VWS V14.01,2013-01-23 15:54:00,
2013-01-23 10:59:00,61.8,46.0,30.32,NE,48,6.0,16.0,56,0.00,,SKC,0.00,VWS V14.01,2013-01-23 15:59:00,
2013-01-23 11:04:00,62.2,46.3,30.32,ENE,62,5.0,11.0,56,0.00,,SKC,0.00,VWS V14.01,2013-01-23 16:04:00,
2013-01-23 11:09:00,62.5,46.1,30.31,NE,44,5.0,12.0,55,0.00,,SKC,0.00,VWS V14.01,2013-01-23 16:09:00,
2013-01-23 11:14:00,63.5,47.5,30.31,NE,54,11.0,12.0,56,0.00,,SKC,0.00,VWS V14.01,2013-01-23 16:14:00,
2013-01-23 11:19:00,64.4,47.9,30.31,NNW,333,5.0,12.0,55,0.00,,SKC,0.00,VWS V14.01,2013-01-23 16:19:00,
2013-01-23 11:24:00,64.6,47.6,30.31,NNW,327,6.0,12.0,54,0.00,,SKC,0.00,VWS V14.01,2013-01-23 16:24:00,
2013-01-23 11:29:00,64.5,47.5,30.31,NW,318,7.0,14.0,54,0.00,,SKC,0.00,VWS V14.01,2013-01-23 16:29:00,
2013-01-23 11:34:00,64.6,48.1,30.31,NNE,26,6.0,10.0,55,0.00,,SKC,0.00,VWS V14.01,2013-01-23 16:34:00,
2013-01-23 11:39:00,65.3,48.7,30.31,NE,40,9.0,11.0,55,0.00,,SKC,0.00,VWS V14.01,2013-01-23 16:39:00,
2013-01-23 11:44:00,65.5,48.9,30.30,NNW,343,4.0,11.0,55,0.00,,SKC,0.00,VWS V14.01,2013-01-23 16:44:00,
2013-01-23 11:49:00,66.2,49.6,30.30,North,350,10.0,11.0,55,0.00,,SKC,0.00,VWS V14.01,2013-01-23 16:49:00,
2013-01-23 11:54:00,66.6,49.5,30.30,North,355,10.0,11.0,54,0.00,,SKC,0.00,VWS V14.01,2013-01-23 16:54:00,
2013-01-23 11:59:00,66.8,49.6,30.29,NE,35,7.0,11.0,54,0.00,,SKC,0.00,VWS V14.01,2013-01-23 16:59:00,
2013-01-23 12:04:00,67.5,49.8,30.29,NE,41,8.0,10.0,53,0.00,,SKC,0.00,VWS V14.01,2013-01-23 17:04:00,
2013-01-23 12:09:00,67.8,50.1,30.29,NNW,347,5.0,13.0,53,0.00,,SKC,0.00,VWS V14.01,2013-01-23 17:09:00,
2013-01-23 12:14:00,68.5,50.7,30.29,ENE,61,6.0,13.0,53,0.00,,SKC,0.00,VWS V14.01,2013-01-23 17:14:00,
2013-01-23 12:19:00,69.0,51.2,30.28,NNE,30,7.0,13.0,53,0.00,,SKC,0.00,VWS V14.01,2013-01-23 17:19:00,
2013-01-23 12:24:00,69.4,51.0,30.28,NNW,336,11.0,13.0,52,0.00,,SKC,0.00,VWS V14.01,2013-01-23 17:24:00,
2013-01-23 12:29:00,69.5,50.6,30.28,NNW,342,6.0,13.0,51,0.00,,SKC,0.00,VWS V14.01,2013-01-23 17:29:00,
2013-01-23 12:34:00,69.9,51.5,30.27,NE,49,6.0,8.0,52,0.00,,SKC,0.00,VWS V14.01,2013-01-23 17:34:00,
2013-01-23 12:39:00,69.7,51.3,30.27,NNW,346,5.0,14.0,52,0.00,,SKC,0.00,VWS V14.01,2013-01-23 17:39:00,
2013-01-23 12:44:00,70.1,51.2,30.27,NE,44,7.0,14.0,51,0.00,,SKC,0.00,VWS V14.01,2013-01-23 17:44:00,
2013-01-23 12:49:00,70.4,51.4,30.26,NW,326,11.0,14.0,51,0.00,,SKC,0.00,VWS V14.01,2013-01-23 17:49:00,
2013-01-23 12:54:00,70.5,51.5,30.26,ENE,60,7.0,14.0,51,0.00,,SKC,0.00,VWS V14.01,2013-01-23 17:54:00,
2013-01-23 12:59:00,71.4,52.3,30.25,North,5,5.0,14.0,51,0.00,,SKC,0.00,VWS V14.01,2013-01-23 17:59:00,
2013-01-23 13:04:00,71.4,51.8,30.25,NNE,22,9.0,10.0,50,0.00,,SKC,0.00,VWS V14.01,2013-01-23 18:04:00,
2013-01-23 13:09:00,71.7,52.1,30.25,NNE,22,4.0,11.0,50,0.00,,SKC,0.00,VWS V14.01,2013-01-23 18:09:00,
2013-01-23 13:14:00,71.7,52.1,30.25,NNE,32,7.0,13.0,50,0.00,,SKC,0.00,VWS V14.01,2013-01-23 18:14:00,
2013-01-23 13:19:00,71.8,52.7,30.25,NE,49,10.0,13.0,51,0.00,,SKC,0.00,VWS V14.01,2013-01-23 18:19:00,
2013-01-23 13:24:00,72.3,52.1,30.25,NE,37,6.0,13.0,49,0.00,,SKC,0.00,VWS V14.01,2013-01-23 18:24:00,
2013-01-23 13:29:00,71.7,51.5,30.25,NNE,22,13.0,13.0,49,0.00,,SKC,0.00,VWS V14.01,2013-01-23 18:29:00,
2013-01-23 13:34:00,71.9,51.7,30.25,NNW,346,1.0,10.0,49,0.00,,SKC,0.00,VWS V14.01,2013-01-23 18:34:00,
2013-01-23 13:39:00,72.5,51.7,30.25,NE,35,10.0,14.0,48,0.00,,SKC,0.00,VWS V14.01,2013-01-23 18:39:00,
2013-01-23 13:44:00,72.5,51.2,30.24,NNE,29,3.0,14.0,47,0.00,,SKC,0.00,VWS V14.01,2013-01-23 18:44:00,
2013-01-23 13:49:00,72.6,50.7,30.24,East,92,9.0,14.0,46,0.00,,SKC,0.00,VWS V14.01,2013-01-23 18:49:00,
2013-01-23 13:54:00,73.2,51.2,30.24,ESE,113,4.0,14.0,46,0.00,,SKC,0.00,VWS V14.01,2013-01-23 18:54:00,
2013-01-23 13:59:00,73.9,51.2,30.24,NNW,345,2.0,14.0,45,0.00,,SKC,0.00,VWS V14.01,2013-01-23 18:59:00,
2013-01-23 14:04:00,73.8,51.2,30.24,NE,37,13.0,13.0,45,0.00,,SKC,0.00,VWS V14.01,2013-01-23 19:04:00,
2013-01-23 14:09:00,73.7,49.2,30.24,NNW,342,4.0,13.0,42,0.00,,SKC,0.00,VWS V14.01,2013-01-23 19:09:00,
2013-01-23 14:14:00,73.7,51.1,30.23,East,81,1.0,13.0,45,0.00,,SKC,0.00,VWS V14.01,2013-01-23 19:14:00,
2013-01-23 14:19:00,74.1,50.2,30.23,East,80,2.0,13.0,43,0.00,,SKC,0.00,VWS V14.01,2013-01-23 19:19:00,
2013-01-23 14:24:00,73.8,48.7,30.23,NNE,19,5.0,13.0,41,0.00,,SKC,0.00,VWS V14.01,2013-01-23 19:24:00,
2013-01-23 14:29:00,73.5,47.7,30.23,NNW,342,11.0,13.0,40,0.00,,SKC,0.00,VWS V14.01,2013-01-23 19:29:00,
2013-01-23 14:34:00,74.5,47.2,30.23,NE,48,11.0,11.0,38,0.00,,SKC,0.00,VWS V14.01,2013-01-23 19:34:00,
2013-01-23 14:39:00,74.1,46.9,30.23,East,79,5.0,11.0,38,0.00,,SKC,0.00,VWS V14.01,2013-01-23 19:39:00,
2013-01-23 14:44:00,74.3,47.1,30.23,NE,43,9.0,13.0,38,0.00,,SKC,0.00,VWS V14.01,2013-01-23 19:44:00,
2013-01-23 14:49:00,73.6,46.5,30.22,ENE,62,5.0,13.0,38,0.00,,SKC,0.00,VWS V14.01,2013-01-23 19:49:00,
2013-01-23 14:54:00,73.6,47.1,30.22,ENE,59,6.0,13.0,39,0.00,,SKC,0.00,VWS V14.01,2013-01-23 19:54:00,
2013-01-23 14:59:00,73.9,46.0,30.22,NNE,33,8.0,13.0,37,0.00,,SKC,0.00,VWS V14.01,2013-01-23 19:59:00,
2013-01-23 15:04:00,73.6,42.8,30.22,ENE,70,10.0,13.0,33,0.00,,SKC,0.00,VWS V14.01,2013-01-23 20:04:00,
2013-01-23 15:09:00,73.6,43.5,30.22,NE,45,5.0,13.0,34,0.00,,SKC,0.00,VWS V14.01,2013-01-23 20:09:00,
2013-01-23 15:14:00,73.7,44.4,30.22,NNW,336,5.0,13.0,35,0.00,,SKC,0.00,VWS V14.01,2013-01-23 20:14:00,
2013-01-23 15:19:00,74.1,45.5,30.22,ENE,65,5.0,13.0,36,0.00,,SKC,0.00,VWS V14.01,2013-01-23 20:19:00,
2013-01-23 15:24:00,74.6,45.2,30.22,ENE,65,8.0,13.0,35,0.00,,SKC,0.00,VWS V14.01,2013-01-23 20:24:00,
2013-01-23 15:29:00,74.0,43.1,30.22,SE,127,2.0,13.0,33,0.00,,SKC,0.00,VWS V14.01,2013-01-23 20:29:00,
2013-01-23 15:34:00,73.9,42.2,30.22,East,84,5.0,6.0,32,0.00,,SKC,0.00,VWS V14.01,2013-01-23 20:34:00,
2013-01-23 15:39:00,74.2,42.5,30.22,ENE,72,9.0,11.0,32,0.00,,SKC,0.00,VWS V14.01,2013-01-23 20:39:00,
2013-01-23 15:44:00,74.6,42.0,30.22,East,90,1.0,11.0,31,0.00,,SKC,0.00,VWS V14.01,2013-01-23 20:44:00,
2013-01-23 15:49:00,74.3,43.4,30.22,NNE,16,7.0,11.0,33,0.00,,SKC,0.00,VWS V14.01,2013-01-23 20:49:00,
2013-01-23 15:54:00,74.4,42.7,30.22,NE,53,4.0,11.0,32,0.00,,SKC,0.00,VWS V14.01,2013-01-23 20:54:00,
2013-01-23 15:59:00,74.2,44.8,30.22,ENE,72,3.0,11.0,35,0.00,,SKC,0.00,VWS V14.01,2013-01-23 20:59:00,
2013-01-23 16:04:00,74.3,43.4,30.22,ESE,123,3.0,7.0,33,0.00,,SKC,0.00,VWS V14.01,2013-01-23 21:04:00,
2013-01-23 16:09:00,74.0,43.9,30.22,NE,50,6.0,7.0,34,0.00,,SKC,0.00,VWS V14.01,2013-01-23 21:09:00,
2013-01-23 16:14:00,74.0,42.3,30.22,NNE,26,6.0,12.0,32,0.00,,SKC,0.00,VWS V14.01,2013-01-23 21:14:00,
2013-01-23 16:19:00,73.7,42.0,30.22,NE,35,8.0,12.0,32,0.00,,SKC,0.00,VWS V14.01,2013-01-23 21:19:00,
2013-01-23 16:24:00,73.7,42.0,30.22,NNW,348,7.0,12.0,32,0.00,,SKC,0.00,VWS V14.01,2013-01-23 21:24:00,
2013-01-23 16:29:00,73.7,42.8,30.23,NE,42,4.0,12.0,33,0.00,,SKC,0.00,VWS V14.01,2013-01-23 21:29:00,
2013-01-23 16:34:00,73.6,42.0,30.23,ENE,59,9.0,10.0,32,0.00,,SKC,0.00,VWS V14.01,2013-01-23 21:34:00,
2013-01-23 16:39:00,73.4,43.3,30.23,NE,43,6.0,10.0,34,0.00,,SKC,0.00,VWS V14.01,2013-01-23 21:39:00,
2013-01-23 16:44:00,73.2,43.2,30.23,NNE,28,4.0,10.0,34,0.00,,SKC,0.00,VWS V14.01,2013-01-23 21:44:00,
2013-01-23 16:49:00,73.3,42.5,30.23,NNW,331,2.0,10.0,33,0.00,,SKC,0.00,VWS V14.01,2013-01-23 21:49:00,
2013-01-23 16:54:00,73.4,43.3,30.23,NE,42,4.0,10.0,34,0.00,,SKC,0.00,VWS V14.01,2013-01-23 21:54:00,
2013-01-23 16:59:00,73.1,43.1,30.23,NNW,336,3.0,10.0,34,0.00,,SKC,0.00,VWS V14.01,2013-01-23 21:59:00,
2013-01-23 17:04:00,72.9,42.1,30.23,NE,35,5.0,10.0,33,0.00,,SKC,0.00,VWS V14.01,2013-01-23 22:04:00,
2013-01-23 17:09:00,72.7,42.7,30.23,NNE,16,3.0,10.0,34,0.00,,SKC,0.00,VWS V14.01,2013-01-23 22:09:00,
2013-01-23 17:14:00,72.6,42.7,30.23,NNW,331,6.0,10.0,34,0.00,,SKC,0.00,VWS V14.01,2013-01-23 22:14:00,
2013-01-23 17:19:00,72.5,43.3,30.23,NE,48,4.0,10.0,35,0.00,,SKC,0.00,VWS V14.01,2013-01-23 22:19:00,
2013-01-23 17:24:00,72.3,44.6,30.23,NE,45,1.0,10.0,37,0.00,,SKC,0.00,VWS V14.01,2013-01-23 22:24:00,
2013-01-23 17:29:00,72.0,44.3,30.23,NNW,345,4.0,10.0,37,0.00,,SKC,0.00,VWS V14.01,2013-01-23 22:29:00,
2013-01-23 17:34:00,71.8,44.8,30.23,North,360,1.0,4.0,38,0.00,,SKC,0.00,VWS V14.01,2013-01-23 22:34:00,
2013-01-23 17:39:00,71.5,44.6,30.23,NNW,348,2.0,6.0,38,0.00,,SKC,0.00,VWS V14.01,2013-01-23 22:39:00,
2013-01-23 17:44:00,71.1,44.2,30.23,NE,40,2.0,6.0,38,0.00,,SKC,0.00,VWS V14.01,2013-01-23 22:44:00,
2013-01-23 17:49:00,70.4,44.3,30.23,NNE,19,1.0,6.0,39,0.00,,SKC,0.00,VWS V14.01,2013-01-23 22:49:00,
2013-01-23 17:54:00,69.8,44.4,30.23,NNE,12,1.0,6.0,40,0.00,,SKC,0.00,VWS V14.01,2013-01-23 22:54:00,
2013-01-23 17:59:00,69.2,44.5,30.23,NNE,12,1.0,6.0,41,0.00,,SKC,0.00,VWS V14.01,2013-01-23 22:59:00,
2013-01-23 18:04:00,68.6,44.6,30.24,North,11,0.0,1.0,42,0.00,,SKC,0.00,VWS V14.01,2013-01-23 23:04:00,
2013-01-23 18:09:00,68.1,44.8,30.24,North,11,1.0,1.0,43,0.00,,SKC,0.00,VWS V14.01,2013-01-23 23:09:00,
2013-01-23 18:14:00,67.7,45.6,30.24,North,11,0.0,1.0,45,0.00,,SKC,0.00,VWS V14.01,2013-01-23 23:14:00,
2013-01-23 18:19:00,67.2,45.2,30.24,North,11,0.0,1.0,45,0.00,,SKC,0.00,VWS V14.01,2013-01-23 23:19:00,
2013-01-23 18:24:00,66.6,45.8,30.24,NNE,12,0.0,1.0,47,0.00,,SKC,0.00,VWS V14.01,2013-01-23 23:24:00,
2013-01-23 18:29:00,65.9,46.2,30.24,NNE,12,0.0,1.0,49,0.00,,SKC,0.00,VWS V14.01,2013-01-23 23:29:00,
2013-01-23 18:34:00,65.0,45.4,30.24,NNE,12,0.0,0.0,49,0.00,,SKC,0.00,VWS V14.01,2013-01-23 23:34:00,
2013-01-23 18:39:00,64.4,45.9,30.24,NNE,16,0.0,0.0,51,0.00,,SKC,0.00,VWS V14.01,2013-01-23 23:39:00,
2013-01-23 18:44:00,64.0,45.5,30.24,NE,35,1.0,3.0,51,0.00,,SKC,0.00,VWS V14.01,2013-01-23 23:44:00,
2013-01-23 18:49:00,64.4,45.4,30.25,North,360,1.0,3.0,50,0.00,,SKC,0.00,VWS V14.01,2013-01-23 23:49:00,
2013-01-23 18:54:00,64.4,45.9,30.25,NNE,22,1.0,3.0,51,0.00,,SKC,0.00,VWS V14.01,2013-01-23 23:54:00,
2013-01-23 18:59:00,64.3,46.3,30.25,NNE,23,0.0,3.0,52,0.00,,SKC,0.00,VWS V14.01,2013-01-23 23:59:00,
2013-01-23 19:04:00,63.9,46.5,30.25,NNE,23,0.0,0.0,53,0.00,,SKC,0.00,VWS V14.01,2013-01-24 00:04:00,
2013-01-23 19:09:00,63.5,46.1,30.25,NNE,23,0.0,0.0,53,0.00,,SKC,0.00,VWS V14.01,2013-01-24 00:09:00,
2013-01-23 19:14:00,63.6,45.7,30.26,NE,54,0.0,0.0,52,0.00,,SKC,0.00,VWS V14.01,2013-01-24 00:14:00,
2013-01-23 19:19:00,63.6,46.2,30.25,NNE,21,1.0,1.0,53,0.00,,SKC,0.00,VWS V14.01,2013-01-24 00:19:00,
2013-01-23 19:24:00,63.3,46.4,30.26,NNE,16,0.0,1.0,54,0.00,,SKC,0.00,VWS V14.01,2013-01-24 00:24:00,
2013-01-23 19:29:00,63.0,47.1,30.26,NNE,16,0.0,1.0,56,0.00,,SKC,0.00,VWS V14.01,2013-01-24 00:29:00,
2013-01-23 19:34:00,62.8,46.9,30.26,NNE,16,0.0,0.0,56,0.00,,SKC,0.00,VWS V14.01,2013-01-24 00:34:00,
2013-01-23 19:39:00,62.5,46.6,30.26,NNE,16,0.0,1.0,56,0.00,,SKC,0.00,VWS V14.01,2013-01-24 00:39:00,
2013-01-23 19:44:00,62.2,46.8,30.26,NNE,16,0.0,1.0,57,0.00,,SKC,0.00,VWS V14.01,2013-01-24 00:44:00,
2013-01-23 19:49:00,61.9,47.0,30.26,NNE,16,0.0,1.0,58,0.00,,SKC,0.00,VWS V14.01,2013-01-24 00:49:00,
2013-01-23 19:54:00,61.4,47.0,30.27,NNE,16,0.0,1.0,59,0.00,,SKC,0.00,VWS V14.01,2013-01-24 00:54:00,
2013-01-23 19:59:00,61.3,47.3,30.27,NNE,15,0.0,1.0,60,0.00,,SKC,0.00,VWS V14.01,2013-01-24 00:59:00,
2013-01-23 20:04:00,61.0,47.0,30.27,NNE,16,0.0,0.0,60,0.00,,SKC,0.00,VWS V14.01,2013-01-24 01:04:00,
2013-01-23 20:09:00,60.5,47.4,30.27,NNE,16,0.0,0.0,62,0.00,,SKC,0.00,VWS V14.01,2013-01-24 01:09:00,
2013-01-23 20:14:00,60.1,47.5,30.27,NNE,16,0.0,0.0,63,0.00,,SKC,0.00,VWS V14.01,2013-01-24 01:14:00,
2013-01-23 20:19:00,59.9,46.9,30.27,NNE,16,0.0,0.0,62,0.00,,SKC,0.00,VWS V14.01,2013-01-24 01:19:00,
2013-01-23 20:24:00,59.9,46.4,30.27,NNE,16,0.0,1.0,61,0.00,,SKC,0.00,VWS V14.01,2013-01-24 01:24:00,
2013-01-23 20:29:00,59.9,46.4,30.28,NNE,16,0.0,1.0,61,0.00,,SKC,0.00,VWS V14.01,2013-01-24 01:29:00,
2013-01-23 20:34:00,59.6,46.2,30.27,NNE,16,0.0,0.0,61,0.00,,SKC,0.00,VWS V14.01,2013-01-24 01:34:00,
2013-01-23 20:39:00,59.7,46.2,30.28,NNE,16,0.0,0.0,61,0.00,,SKC,0.00,VWS V14.01,2013-01-24 01:39:00,
2013-01-23 20:44:00,59.4,46.0,30.28,NNE,16,0.0,0.0,61,0.00,,SKC,0.00,VWS V14.01,2013-01-24 01:44:00,
2013-01-23 20:49:00,59.1,46.5,30.28,NNE,16,0.0,0.0,63,0.00,,SKC,0.00,VWS V14.01,2013-01-24 01:49:00,
2013-01-23 20:54:00,59.1,47.8,30.28,NNE,16,0.0,1.0,66,0.00,,SKC,0.00,VWS V14.01,2013-01-24 01:54:00,
2013-01-23 20:59:00,58.7,47.8,30.28,NNE,16,0.0,1.0,67,0.00,,SKC,0.00,VWS V14.01,2013-01-24 01:59:00,
2013-01-23 21:04:00,58.3,47.8,30.28,NNE,16,0.0,0.0,68,0.00,,SKC,0.00,VWS V14.01,2013-01-24 02:04:00,
2013-01-23 21:09:00,57.9,47.4,30.28,NNE,16,0.0,0.0,68,0.00,,SKC,0.00,VWS V14.01,2013-01-24 02:09:00,
2013-01-23 21:14:00,58.0,46.3,30.28,NW,319,0.0,2.0,65,0.00,,SKC,0.00,VWS V14.01,2013-01-24 02:14:00,
2013-01-23 21:19:00,58.3,46.2,30.28,NNE,20,0.0,2.0,64,0.00,,SKC,0.00,VWS V14.01,2013-01-24 02:19:00,
2013-01-23 21:24:00,58.6,45.6,30.28,NNE,13,2.0,2.0,62,0.00,,SKC,0.00,VWS V14.01,2013-01-24 02:24:00,
2013-01-23 21:29:00,59.0,45.2,30.29,NNW,334,1.0,2.0,60,0.00,,SKC,0.00,VWS V14.01,2013-01-24 02:29:00,
2013-01-23 21:34:00,59.3,45.0,30.29,NNE,13,1.0,3.0,59,0.00,,SKC,0.00,VWS V14.01,2013-01-24 02:34:00,
2013-01-23 21:39:00,59.4,44.6,30.29,NNE,21,2.0,4.0,58,0.00,,SKC,0.00,VWS V14.01,2013-01-24 02:39:00,
2013-01-23 21:43:00,59.6,44.4,30.29,North,11,5.0,5.0,57,0.00,,SKC,0.00,VWS V14.01,2013-01-24 02:43:00,
2013-01-23 21:48:00,59.6,44.4,30.29,NNW,345,2.0,5.0,57,0.00,,SKC,0.00,VWS V14.01,2013-01-24 02:48:00,
2013-01-23 21:53:00,59.6,44.4,30.29,NNE,24,2.0,7.0,57,0.00,,SKC,0.00,VWS V14.01,2013-01-24 02:53:00,
2013-01-23 21:58:00,59.7,44.0,30.29,North,11,0.0,7.0,56,0.00,,SKC,0.00,VWS V14.01,2013-01-24 02:58:00,
2013-01-23 22:03:00,59.6,44.4,30.29,NNW,334,0.0,1.0,57,0.00,,SKC,0.00,VWS V14.01,2013-01-24 03:03:00,
2013-01-23 22:08:00,59.4,44.2,30.29,NE,44,1.0,2.0,57,0.00,,SKC,0.00,VWS V14.01,2013-01-24 03:08:00,
2013-01-23 22:13:00,59.2,44.0,30.29,NE,42,1.0,2.0,57,0.00,,SKC,0.00,VWS V14.01,2013-01-24 03:13:00,
2013-01-23 22:18:00,59.0,44.3,30.29,NNE,15,1.0,2.0,58,0.00,,SKC,0.00,VWS V14.01,2013-01-24 03:18:00,
2013-01-23 22:23:00,58.8,44.1,30.29,NE,49,2.0,2.0,58,0.00,,SKC,0.00,VWS V14.01,2013-01-24 03:23:00,
2013-01-23 22:28:00,58.7,44.0,30.29,NNE,28,1.0,4.0,58,0.00,,SKC,0.00,VWS V14.01,2013-01-24 03:28:00,
2013-01-23 22:33:00,58.6,44.3,30.29,North,5,5.0,5.0,59,0.00,,SKC,0.00,VWS V14.01,2013-01-24 03:33:00,
2013-01-23 22:38:00,58.7,44.4,30.28,NE,39,2.0,6.0,59,0.00,,SKC,0.00,VWS V14.01,2013-01-24 03:38:00,
2013-01-23 22:43:00,58.5,44.7,30.28,NE,35,2.0,6.0,60,0.00,,SKC,0.00,VWS V14.01,2013-01-24 03:43:00,
2013-01-23 22:48:00,58.4,45.5,30.28,NNE,16,1.0,6.0,62,0.00,,SKC,0.00,VWS V14.01,2013-01-24 03:48:00,
2013-01-23 22:53:00,58.1,45.6,30.28,NNE,21,1.0,6.0,63,0.00,,SKC,0.00,VWS V14.01,2013-01-24 03:53:00,
2013-01-23 22:58:00,58.0,46.3,30.28,NE,55,2.0,6.0,65,0.00,,SKC,0.00,VWS V14.01,2013-01-24 03:58:00,
2013-01-23 23:03:00,57.8,46.5,30.28,ENE,76,1.0,2.0,66,0.00,,SKC,0.00,VWS V14.01,2013-01-24 04:03:00,
2013-01-23 23:08:00,57.7,46.8,30.28,NE,35,1.0,4.0,67,0.00,,SKC,0.00,VWS V14.01,2013-01-24 04:08:00,
2013-01-23 23:13:00,57.4,47.3,30.28,NNE,22,1.0,6.0,69,0.00,,SKC,0.00,VWS V14.01,2013-01-24 04:13:00,
2013-01-23 23:18:00,57.2,47.1,30.28,ENE,63,2.0,6.0,69,0.00,,SKC,0.00,VWS V14.01,2013-01-24 04:18:00,
2013-01-23 23:23:00,57.1,47.4,30.27,ENE,62,2.0,6.0,70,0.00,,SKC,0.00,VWS V14.01,2013-01-24 04:23:00,
2013-01-23 23:28:00,57.0,47.3,30.27,NE,50,4.0,6.0,70,0.00,,SKC,0.00,VWS V14.01,2013-01-24 04:28:00,
2013-01-23 23:33:00,56.8,47.1,30.28,ENE,59,1.0,4.0,70,0.00,,SKC,0.00,VWS V14.01,2013-01-24 04:33:00,
2013-01-23 23:38:00,56.6,47.3,30.27,NNE,26,0.0,4.0,71,0.00,,SKC,0.00,VWS V14.01,2013-01-24 04:38:00,
2013-01-23 23:43:00,56.3,47.4,30.27,NNE,26,0.0,4.0,72,0.00,,SKC,0.00,VWS V14.01,2013-01-24 04:43:00,
2013-01-23 23:48:00,56.1,47.6,30.27,NNE,26,0.0,4.0,73,0.00,,SKC,0.00,VWS V14.01,2013-01-24 04:48:00,
2013-01-23 23:53:00,56.0,47.5,30.27,NE,35,1.0,4.0,73,0.00,,SKC,0.00,VWS V14.01,2013-01-24 04:53:00,
2013-01-23 23:58:00,55.9,47.7,30.27,ENE,60,2.0,4.0,74,0.00,,SKC,0.00,VWS V14.01,2013-01-24 04:58:00,